Theta_e
330 334 351 354 354 354 354 352 351 352 351 350 350 350 350 350 349 349 349 348 349 345 343 343 343 342 340 341 343 343 345 345 346 349 350 350 349 348 348 348 348 346 351
331 335 349 353 354 354 354 353 352 352 350 349 349 349 348 348 349 349 349 350 348 346 344 342 342 340 338 337 338 340 340 337 339 342 344 347 347 345 346 346 348 344 348
331 338 346 351 353 354 353 353 352 351 349 348 347 346 346 346 345 346 350 349 347 344 342 340 340 338 335 334 334 334 334 335 338 338 341 337 339 345 344 344 345 345 345
332 341 345 348 352 353 353 352 351 350 349 347 346 345 345 345 347 348 349 347 344 344 342 339 337 334 332 330 329 329 330 334 338 338 335 335 341 345 345 343 342 342 342
333 339 343 347 352 353 353 352 351 350 349 347 347 346 346 345 345 348 347 345 343 341 340 337 335 331 329 326 324 326 327 335 335 331 330 331 333 344 344 341 340 341 342
332 337 342 347 352 352 352 352 350 348 348 348 347 347 347 346 345 348 346 344 342 340 337 335 332 328 325 322 321 324 327 333 328 322 324 329 331 340 341 341 341 342 342
330 335 338 346 350 351 351 351 351 350 349 350 348 348 348 346 347 345 345 342 340 334 332 332 329 326 322 318 319 320 326 328 318 318 320 323 329 337 336 337 338 340 340
329 333 337 339 344 347 349 350 350 350 350 350 350 349 348 346 344 342 338 340 337 333 330 331 327 324 320 316 317 320 322 321 315 313 314 316 329 331 332 333 335 335 336
324 330 332 336 339 338 343 344 346 348 348 347 348 347 346 345 345 341 338 337 333 333 330 330 326 322 319 314 316 318 320 318 309 310 313 314 326 326 327 328 329 330 331
317 326 328 333 340 338 339 335 338 342 343 343 343 341 339 339 338 336 333 335 333 334 330 329 325 321 318 313 312 314 316 313 305 307 309 312 325 323 322 323 324 326 326
311 316 324 329 336 339 341 335 332 335 336 337 337 334 333 333 334 330 328 332 336 335 332 329 324 321 317 311 310 310 304 299 299 301 304 316 319 320 320 321 321 322 323
297 301 310 322 330 336 338 338 336 335 339 338 338 337 336 333 331 329 324 327 331 331 332 328 325 319 308 294 292 299 292 295 296 297 300 315 318 318 319 319 319 321 322
294 296 298 299 317 333 335 336 334 332 331 335 337 336 334 332 328 327 325 325 326 323 321 320 313 307 302 292 291 292 291 291 293 294 298 311 316 320 319 319 320 322 323
293 295 297 297 299 321 333 335 334 331 329 330 328 333 331 328 326 324 323 323 323 321 318 315 310 305 301 296 294 292 291 290 291 293 295 307 312 318 321 321 322 322 321
293 294 295 297 299 307 324 330 331 331 329 327 328 326 329 327 325 323 323 321 320 318 316 313 309 304 302 297 293 292 291 290 290 292 294 302 311 316 321 322 323 322 323
293 293 295 297 301 306 318 322 326 329 330 331 329 327 326 325 323 322 319 318 317 316 315 312 309 304 301 295 293 292 291 290 290 291 294 295 306 315 318 323 323 323 323
291 293 294 298 302 310 316 320 321 323 325 325 325 323 324 322 322 321 320 318 318 315 313 309 306 304 300 294 292 291 290 290 290 290 292 295 298 307 313 320 321 323 324
291 291 294 296 300 310 313 315 315 316 317 318 319 321 322 323 323 321 319 317 316 313 312 309 305 301 300 297 292 290 289 289 290 290 290 293 296 299 305 312 315 318 320
290 291 292 294 295 302 304 304 304 304 304 303 304 307 311 314 315 318 317 315 314 313 309 307 303 302 301 298 295 292 289 288 289 290 289 290 292 297 298 303 308 308 312
289 290 291 293 293 296 302 300 298 297 297 298 297 298 299 302 307 310 310 310 310 309 306 304 302 298 296 296 294 292 289 288 288 288 288 290 290 292 293 295 296 298 305
288 289 289 290 291 293 293 295 295 292 293 293 295 295 295 296 298 300 304 304 305 304 303 303 299 298 298 293 293 293 291 290 288 288 288 288 288 289 290 290 292 293 295
284 286 287 288 289 291 291 291 291 291 290 290 292 290 290 291 292 294 296 298 299 300 300 299 297 296 295 293 292 289 290 289 287 287 286 287 287 287 288 289 288 289 290
282 282 284 285 286 288 289 290 290 289 287 286 286 286 286 286 288 289 290 291 293 295 295 296 296 296 294 294 291 291 289 287 286 286 286 286 286 286 287 287 288 288 289
281 282 283 283 284 285 286 285 284 283 282 282 282 283 284 284 285 285 286 287 288 288 288 290 294 294 293 291 292 291 289 288 287 286 286 287 285 286 286 286 286 287 288
281 280 281 282 282 282 282 283 282 281 281 281 281 281 282 282 283 284 284 284 284 285 285 286 287 288 291 290 291 290 289 288 288 286 285 286 287 286 286 286 286 286 287
281 281 281 281 281 281 281 281 280 279 279 280 279 280 280 281 281 281 282 282 282 282 282 283 283 284 285 287 288 288 289 288 288 287 286 288 288 288 285 285 285 286 286
Wind_Speed
6 6 8 12 12 11 11 10 10 9 10 10 11 11 10 10 9 9 8 9 8 12 10 11 10 10 10 10 10 9 12 13 12 12 12 13 14 13 15 15 10 8 15
6 8 10 11 12 11 10 9 8 8 9 10 10 10 10 9 9 7 5 10 11 11 9 9 9 10 11 11 10 10 10 9 9 9 10 11 10 11 13 13 11 10 13
6 9 10 12 12 11 10 9 9 8 8 8 9 9 9 8 7 6 9 10 10 9 8 7 8 9 10 10 10 9 8 10 9 7 8 4 3 10 11 12 12 12 13
6 8 9 11 12 12 11 10 9 9 8 8 7 6 6 6 7 6 10 10 9 9 8 6 7 8 9 9 9 8 8 9 9 9 5 5 3 9 11 10 11 11 12
6 6 7 11 11 12 14 12 10 10 9 9 8 7 6 6 5 7 9 9 9 7 6 6 7 8 9 9 8 6 6 8 9 7 5 5 5 8 11 9 8 7 9
5 5 7 11 11 11 11 12 11 11 10 9 8 8 9 7 6 10 9 8 9 8 6 5 5 7 7 8 7 6 6 7 8 6 6 6 5 9 9 10 9 8 8
5 5 5 11 11 10 11 10 11 11 10 10 9 9 10 9 8 6 6 5 2 2 3 3 5 6 6 6 5 4 6 8 5 5 5 5 5 7 7 7 7 10 10
6 6 6 9 10 10 11 11 11 11 11 10 10 10 12 11 10 7 3 3 2 1 2 3 4 5 6 6 5 5 6 7 5 4 4 4 6 5 5 6 7 7 7
1 2 3 5 7 9 10 11 11 10 10 9 9 9 8 10 10 8 5 3 2 3 1 1 3 5 6 6 6 6 6 6 5 3 3 3 5 4 4 4 4 3 3
4 3 3 3 5 4 4 7 8 9 8 7 6 6 7 7 8 8 6 4 4 3 2 0 3 3 4 6 6 6 6 7 4 3 3 3 5 3 3 2 2 2 2
5 4 3 3 5 8 6 4 6 7 7 9 8 7 6 3 5 6 4 4 3 2 3 2 2 2 6 8 9 7 6 3 3 2 2 6 5 3 2 2 2 2 2
11 11 8 6 5 5 4 4 4 4 4 3 4 4 3 4 5 5 4 5 2 1 3 2 2 8 6 3 3 6 3 3 3 3 2 7 6 5 4 4 4 3 2
6 6 9 8 8 8 6 4 3 2 1 2 5 4 1 2 3 3 2 2 2 4 2 3 4 3 3 2 2 3 3 3 2 2 5 8 8 7 6 5 4 3 2
9 9 10 9 7 6 6 5 4 3 3 2 1 3 3 2 3 3 3 3 2 2 3 3 1 2 2 1 1 2 3 3 2 3 4 9 9 9 9 7 5 5 5
9 10 11 9 7 6 5 3 2 3 2 3 3 3 3 3 3 3 4 3 3 3 3 3 3 2 1 1 1 1 2 2 3 2 2 9 10 11 11 10 7 6 5
11 12 11 10 8 5 1 3 2 1 2 1 2 1 2 3 3 5 3 4 4 4 3 3 3 3 2 2 3 3 3 3 3 3 3 4 10 10 11 12 10 8 7
10 9 11 11 10 7 6 5 4 3 4 4 4 5 4 3 2 3 3 3 4 3 4 3 3 3 1 1 3 3 3 5 4 5 4 3 5 8 9 9 9 10 10
8 11 11 10 11 12 11 9 8 9 8 8 8 8 10 7 4 3 2 3 1 2 3 2 2 2 3 3 2 3 3 3 4 5 4 4 4 4 6 9 9 9 10
9 10 11 12 12 10 13 11 12 13 11 10 10 11 14 14 13 8 6 5 4 2 1 1 1 1 1 2 3 3 3 4 5 3 5 5 5 5 4 8 10 10 10
9 9 10 9 11 8 7 10 10 11 10 10 10 10 13 11 14 10 9 9 7 4 4 3 4 3 3 3 2 4 4 4 4 5 6 4 5 5 5 5 5 5 12
11 11 12 12 11 7 5 4 7 7 7 9 10 13 13 11 11 11 8 9 8 7 6 5 3 3 2 3 4 3 3 5 6 5 3 4 5 5 5 4 3 3 5
10 11 12 12 12 9 5 4 4 4 5 6 8 12 12 13 13 12 10 9 9 7 9 8 5 3 2 2 2 2 4 5 4 2 2 4 6 3 5 5 5 5 5
10 9 11 10 11 10 9 4 4 4 4 6 9 9 12 13 13 12 12 10 10 9 7 7 6 6 3 3 2 2 3 2 4 2 2 2 4 4 5 6 6 6 6
7 7 7 9 10 11 10 12 14 10 9 4 4 5 8 12 13 13 12 12 11 8 10 8 7 5 3 3 2 1 2 1 4 6 2 3 2 5 5 4 5 6 7
6 6 6 8 11 10 10 9 9 10 6 3 4 8 8 8 11 12 11 11 10 8 9 10 10 9 5 3 4 4 1 2 4 4 8 4 4 4 4 5 5 5 6
6 6 7 8 8 8 9 10 11 10 7 7 7 7 6 4 7 10 9 9 8 9 9 7 7 8 8 6 4 4 3 3 3 3 5 8 10 5 4 4 5 5 5
Wind_Direction
240 190 188 169 168 154 154 144 133 121 115 111 109 106 105 106 115 113 114 109 92 71 62 60 56 58 61 62 65 64 52 52 49 50 56 74 64 59 59 51 42 47 53
161 171 178 175 171 164 155 144 136 132 131 127 122 117 112 107 93 91 108 106 86 75 70 60 53 49 47 46 45 52 53 52 52 50 49 52 78 73 69 59 51 55 51
156 166 171 175 174 165 156 149 150 146 142 133 127 122 117 112 108 98 114 106 94 82 70 59 57 55 48 42 35 35 41 35 45 51 63 46 68 85 75 64 57 53 52
157 165 171 176 174 171 160 158 158 157 153 144 134 122 114 110 107 111 109 96 80 63 59 53 55 50 45 40 35 29 33 45 46 56 52 37 360 100 89 75 63 56 51
154 162 175 178 179 176 166 165 166 165 163 160 154 146 136 126 116 115 111 101 90 65 64 65 53 43 36 32 30 32 41 59 63 58 48 40 33 56 69 75 79 78 77
156 162 175 183 189 184 171 168 174 176 175 172 171 169 157 138 153 143 141 140 111 96 61 57 56 46 37 31 34 31 55 71 64 55 47 32 40 55 52 53 61 61 76
167 168 172 186 191 186 179 176 180 186 189 185 184 188 166 147 139 149 154 122 64 37 356 6 41 41 33 38 48 50 76 76 69 53 48 33 32 51 48 40 35 45 56
181 182 179 189 190 192 183 187 191 192 194 195 194 195 174 165 165 170 161 114 189 281 57 340 35 36 30 28 36 63 90 95 74 67 40 24 6 33 26 33 34 37 46
295 201 210 197 201 197 191 187 190 194 199 206 213 206 199 173 176 158 155 111 202 262 340 348 35 25 17 21 33 56 79 88 85 61 47 16 338 35 35 33 35 22 18
14 329 288 283 225 218 215 199 195 196 198 203 219 215 208 177 169 165 160 163 200 216 180 167 64 22 14 21 20 40 67 63 60 43 27 348 4 22 21 17 14 333 325
359 333 305 256 240 233 222 205 205 199 201 207 209 221 207 165 178 170 165 187 212 162 149 191 122 42 56 21 16 21 31 25 32 17 358 337 334 323 327 341 342 323 298
348 339 345 303 236 221 216 216 205 208 225 195 214 238 196 186 177 166 177 177 190 130 133 230 141 96 67 42 1 5 13 3 11 348 339 332 325 305 299 295 306 292 299
318 343 345 337 309 240 213 186 182 183 227 224 203 215 187 140 134 148 139 169 171 141 105 62 75 83 78 63 21 360 352 2 349 339 329 329 320 313 295 288 281 273 282
345 341 336 334 323 271 234 220 184 179 179 182 157 146 146 150 150 169 162 172 189 169 154 133 130 145 122 87 24 349 340 341 334 325 318 326 323 314 302 290 279 280 284
354 338 338 329 327 307 233 216 168 213 179 189 171 154 157 166 175 174 178 167 190 175 187 175 171 198 234 273 316 280 296 305 309 305 309 321 324 317 310 290 276 276 274
344 343 333 337 337 318 163 110 99 35 318 332 60 339 247 196 187 183 182 190 183 185 190 179 169 198 258 315 310 313 301 299 295 293 293 312 316 319 317 299 279 275 273
336 329 352 350 348 27 80 86 75 53 40 18 358 344 331 284 268 158 167 190 208 186 175 170 164 158 186 317 291 316 322 313 307 299 295 287 298 306 314 334 330 306 283
348 356 351 1 14 41 57 61 61 54 53 41 37 31 19 11 341 310 299 268 260 178 180 193 168 199 183 203 264 286 282 286 291 291 297 293 290 290 298 304 322 323 321
352 2 12 9 14 37 65 69 64 57 57 45 36 29 24 28 26 26 21 13 5 354 359 155 56 311 202 210 256 260 270 272 264 269 270 278 283 285 296 300 310 318 311
1 10 21 29 25 20 50 62 62 61 52 48 47 45 37 30 30 34 33 29 18 19 25 23 26 22 357 328 312 273 251 250 259 254 250 249 246 258 275 294 307 309 310
19 27 27 32 13 27 30 49 50 56 46 47 44 37 38 37 43 42 40 33 27 36 29 19 26 12 342 360 320 320 293 251 254 255 274 272 276 278 276 268 275 293 304
12 15 26 28 28 34 32 40 72 88 64 68 47 45 36 34 29 36 40 39 36 41 39 30 22 353 345 18 9 243 332 329 343 339 275 260 260 273 283 282 282 279 279
24 18 23 22 34 32 34 63 67 59 42 40 33 41 32 36 34 34 37 36 33 31 31 27 25 29 353 351 9 310 323 299 316 309 338 308 283 262 258 255 259 257 259
22 10 36 46 46 42 39 65 68 74 75 36 43 54 45 38 39 37 37 39 38 35 29 11 12 16 355 339 326 145 229 277 307 315 325 317 299 275 277 269 254 254 244
27 37 40 49 54 49 58 71 78 84 77 58 41 50 42 34 37 32 32 34 39 36 30 27 16 17 22 354 342 329 303 208 221 256 302 325 306 262 251 247 256 258 249
38 40 38 61 53 51 65 65 78 81 73 68 44 50 31 21 33 30 29 31 31 29 24 16 16 24 15 6 356 343 328 320 319 293 286 298 288 275 271 267 253 254 248